Location: Beaurecueil
(43.5122°N, 5.5450°E)
Time: 20:56:54
(UTC+00:00)

MOS 1 Rocket - Pass Details

Date: 18 September 2020
Orbit: 614 x 831 km, 97.4° (Epoch: 27 October)

Event Time Altitude Azimuth Distance (km) Brightness Sun altitude
Rises 18:58:13 0° 10° (N) 3,018 6.7 -14.5°
Reaches altitude 10° 19:00:30 10° 9° (N) 2,072 5.8 -14.9°
Maximum altitude 19:04:59 76° 284° (WNW) 658 3.3 -15.6°
Drops below altitude 10° 19:09:15 10° 199° (SSW) 1,980 5.7 -16.4°
Sets 19:11:24 0° 198° (SSW) 2,872 6.5 -16.7°
